Appleton, MN

5:47 AM CST on December 05, 2016 (GMT -0600)
Appleton Municipal

Weather History for KAQP - February, 2014

Change the Weather History Date:

Friday, February 14, 2014

  Actual Average Record
Temperature  
Mean Temperature 4 °F -  
Max Temperature 12 °F 25 °F 51 °F (1999)
Min Temperature -5 °F 9 °F -16 °F (2007)
Degree Days  
Heating Degree Days 62    
Moisture  
Dew Point -3 °F    
Average Humidity 77    
Maximum Humidity 92    
Minimum Humidity 67    
Precipitation  
Precipitation 0.00 in - - ()
Sea Level Pressure  
Sea Level Pressure 29.99 in    
Wind  
Wind Speed 12 mph (NNW)    
Max Wind Speed 18 mph    
Max Gust Speed 17 mph    
Visibility 10 miles    
Events      
Averages and records for this station are not official NWS values.
T = Trace of Precipitation, MM = Missing Value Source: NWS Daily Summary

Daily Weather History Graph

Daily Weather History Graph

Search for Another Location

Airport or City:

Trip Planner

Search our weather history database for the weather conditions in past years. The results will help you decide how hot, cold, wet, or windy it might be!

Date:

Astronomy

Feb. 14, 2014 Rise Set
Actual Time 7:26 AM CST 5:50 PM CST
Civil Twilight 6:56 AM CST 6:20 PM CST
Nautical Twilight 6:21 AM CST 6:55 PM CST
Astronomical Twilight 5:47 AM CST 7:29 PM CST
Moon 5:57 PM CST (2/14) 6:52 AM CST (2/14)
Length of Visible Light 11h 24m
Length of Day
10h 23m
Full, 100% of the Moon is Illuminated
Feb 14
Full
Feb 14
Full
Feb 22
Last Quarter
Mar 1
New
Mar 8
First Quarter

Hourly Weather History & Observations

Time (CST) Temp. Windchill Dew Point Humidity Pressure Visibility Wind Dir Wind Speed Gust Speed Precip Events Conditions
12:13 AM 3.2 °F -15.3 °F -2.2 °F 78% 29.82 in 10.0 mi NNW 15.0 mph - N/A   Clear
12:33 AM 3.2 °F -14.6 °F -2.2 °F 78% 29.80 in 10.0 mi North 13.8 mph - N/A   Scattered Clouds
12:53 AM 3.2 °F -15.3 °F -2.2 °F 78% 29.81 in 10.0 mi North 15.0 mph - N/A   Mostly Cloudy
1:13 AM 3.2 °F -15.9 °F -4.0 °F 72% 29.82 in 10.0 mi North 16.1 mph - N/A   Scattered Clouds
1:33 AM 3.2 °F -15.9 °F -2.2 °F 78% 29.82 in 10.0 mi NNW 16.1 mph - N/A   Scattered Clouds
1:53 AM 3.2 °F -16.5 °F -2.2 °F 78% 29.83 in 10.0 mi NNW 17.3 mph - N/A   Scattered Clouds
2:13 AM 3.2 °F -15.9 °F -2.2 °F 78% 29.83 in 10.0 mi NNW 16.1 mph - N/A   Clear
2:33 AM 1.4 °F -17.6 °F -4.0 °F 78% 29.84 in 10.0 mi NNW 15.0 mph - N/A   Clear
2:53 AM 1.4 °F -19.4 °F -4.0 °F 78% 29.85 in 10.0 mi NNW 18.4 mph - N/A   Scattered Clouds
3:14 AM 1.4 °F -19.4 °F -4.0 °F 78% 29.86 in 10.0 mi NNW 18.4 mph - N/A   Scattered Clouds
3:34 AM 1.4 °F -18.8 °F -4.0 °F 78% 29.87 in 10.0 mi NNW 17.3 mph - N/A   Scattered Clouds
3:53 AM 1.4 °F -17.6 °F -5.8 °F 72% 29.87 in 10.0 mi NNW 15.0 mph - N/A   Scattered Clouds
4:13 AM -0.4 °F -19.9 °F -5.8 °F 78% 29.88 in 10.0 mi NNW 15.0 mph - N/A   Mostly Cloudy
4:33 AM -0.4 °F -19.2 °F -5.8 °F 78% 29.89 in 10.0 mi North 13.8 mph - N/A   Mostly Cloudy
4:53 AM -0.4 °F -18.4 °F -5.8 °F 78% 29.90 in 10.0 mi NNW 12.7 mph - N/A   Mostly Cloudy
5:13 AM -0.4 °F -21.2 °F -7.6 °F 72% 29.91 in 10.0 mi NNW 17.3 mph - N/A   Overcast
5:34 AM -2.2 °F -21.5 °F -7.6 °F 78% 29.93 in 10.0 mi NNW 13.8 mph - N/A   Mostly Cloudy
5:53 AM -2.2 °F -18.9 °F -7.6 °F 78% 29.94 in 10.0 mi NNW 10.4 mph 17.3 mph N/A   Scattered Clouds
6:13 AM -2.2 °F -20.7 °F -9.4 °F 71% 29.95 in 10.0 mi NNW 12.7 mph - N/A   Clear
6:33 AM -4.0 °F -22.1 °F -9.4 °F 78% 29.96 in 10.0 mi NW 11.5 mph - N/A   Clear
6:53 AM -4.0 °F -20.2 °F -9.4 °F 78% 29.97 in 10.0 mi NW 9.2 mph - N/A   Scattered Clouds
7:13 AM -4.0 °F -22.1 °F -9.4 °F 78% 29.98 in 10.0 mi NNW 11.5 mph - N/A   Clear
7:34 AM -5.8 °F -24.4 °F -9.4 °F 84% 29.99 in 10.0 mi NNW 11.5 mph - N/A   Clear
7:54 AM -5.8 °F -24.4 °F -9.4 °F 84% 30.00 in 10.0 mi NW 11.5 mph - N/A   Clear
8:13 AM -4.0 °F -23.7 °F -9.4 °F 78% 30.01 in 10.0 mi NW 13.8 mph - N/A   Clear
8:33 AM -2.2 °F -20.7 °F -9.4 °F 71% 30.01 in 10.0 mi NW 12.7 mph - N/A   Clear
8:53 AM -2.2 °F -20.7 °F -9.4 °F 71% 30.02 in 10.0 mi NW 12.7 mph - N/A   Clear
9:13 AM -2.2 °F -19.9 °F -9.4 °F 71% 30.03 in 10.0 mi NW 11.5 mph - N/A   Clear
9:34 AM -0.4 °F -17.6 °F -7.6 °F 72% 30.03 in 10.0 mi NW 11.5 mph - N/A   Clear
9:53 AM -0.4 °F -18.4 °F -7.6 °F 72% 30.05 in 10.0 mi NW 12.7 mph - N/A   Clear
10:13 AM 1.4 °F -14.5 °F -5.8 °F 72% 30.06 in 10.0 mi NW 10.4 mph - N/A   Clear
10:33 AM 3.2 °F -14.6 °F -4.0 °F 72% 30.07 in 10.0 mi NW 13.8 mph - N/A   Clear
10:53 AM 3.2 °F -12.2 °F -2.2 °F 78% 30.07 in 10.0 mi NW 10.4 mph - N/A   Clear
11:14 AM 5.0 °F -12.3 °F -2.2 °F 72% 30.08 in 10.0 mi NW 13.8 mph - N/A   Clear
11:34 AM 6.8 °F -9.3 °F -2.2 °F 67% 30.08 in 10.0 mi NW 12.7 mph - N/A   Clear
11:53 AM 6.8 °F -11.3 °F -0.4 °F 72% 30.09 in 10.0 mi NW 16.1 mph - N/A   Clear
12:14 PM 8.6 °F -7.0 °F -0.4 °F 67% 30.07 in 10.0 mi NW 12.7 mph - N/A   Clear
12:34 PM 8.6 °F -7.7 °F -0.4 °F 67% 30.07 in 10.0 mi NNW 13.8 mph - N/A   Clear
12:54 PM 8.6 °F -8.3 °F 1.4 °F 73% 30.07 in 10.0 mi NW 15.0 mph - N/A   Clear
1:13 PM 8.6 °F -8.9 °F 1.4 °F 73% 30.07 in 10.0 mi NW 16.1 mph - N/A   Clear
1:33 PM 10.4 °F -6.6 °F 1.4 °F 67% 30.06 in 10.0 mi NW 16.1 mph - N/A   Clear
1:53 PM 10.4 °F -5.4 °F 1.4 °F 67% 30.06 in 10.0 mi NW 13.8 mph - N/A   Scattered Clouds
2:13 PM 12.2 °F -3.1 °F 3.2 °F 67% 30.06 in 10.0 mi NNW 13.8 mph - N/A   Clear
2:33 PM 10.4 °F -6.0 °F 3.2 °F 73% 30.06 in 10.0 mi NNW 15.0 mph - N/A   Clear
2:53 PM 10.4 °F -4.8 °F 3.2 °F 73% 30.06 in 10.0 mi NW 12.7 mph - N/A   Clear
3:13 PM 10.4 °F -4.8 °F 3.2 °F 73% 30.05 in 10.0 mi NW 12.7 mph - N/A   Clear
3:34 PM 10.4 °F -4.1 °F 3.2 °F 73% 30.05 in 10.0 mi NNW 11.5 mph - N/A   Clear
3:54 PM 12.2 °F -1.0 °F 3.2 °F 67% 30.06 in 10.0 mi NW 10.4 mph - N/A   Clear
4:14 PM 12.2 °F 0.7 °F 3.2 °F 67% 30.06 in 10.0 mi NNW 8.1 mph - N/A   Clear
4:33 PM 12.2 °F 0.7 °F 3.2 °F 67% 30.05 in 10.0 mi NW 8.1 mph - N/A   Clear
4:53 PM 10.4 °F -1.5 °F 3.2 °F 73% 30.05 in 10.0 mi NNW 8.1 mph - N/A   Clear
5:14 PM 10.4 °F -1.5 °F 3.2 °F 73% 30.04 in 10.0 mi North 8.1 mph - N/A   Clear
5:33 PM 10.4 °F 4.0 °F 3.2 °F 73% 30.04 in 10.0 mi North 3.5 mph - N/A   Clear
5:53 PM 8.6 °F 2.0 °F 1.4 °F 73% 30.04 in 10.0 mi North 3.5 mph - N/A   Clear
6:13 PM 6.8 °F - 1.4 °F 79% 30.04 in 10.0 mi Calm Calm - N/A   Clear
6:33 PM 3.2 °F -6.2 °F -0.4 °F 85% 30.05 in 10.0 mi West 4.6 mph - N/A   Clear
6:54 PM 3.2 °F -6.2 °F -0.4 °F 85% 30.07 in 10.0 mi West 4.6 mph - N/A   Clear
7:14 PM 1.4 °F -6.2 °F -2.2 °F 85% 30.05 in 10.0 mi WSW 3.5 mph - N/A   Clear
7:33 PM 3.2 °F - -0.4 °F 85% 30.05 in 10.0 mi Calm Calm - N/A   Clear
7:53 PM 3.2 °F - -0.4 °F 85% 30.03 in 10.0 mi Calm Calm - N/A   Clear
8:13 PM 1.4 °F - -2.2 °F 85% 30.02 in 10.0 mi Calm Calm - N/A   Clear
8:33 PM 1.4 °F -6.2 °F -2.2 °F 85% 30.02 in 10.0 mi South 3.5 mph - N/A   Clear
8:53 PM -0.4 °F - -2.2 °F 92% 30.02 in 10.0 mi Calm Calm - N/A   Clear
9:14 PM -0.4 °F - -5.8 °F 78% 30.02 in 10.0 mi Calm Calm - N/A   Clear
9:33 PM -2.2 °F -10.4 °F -5.8 °F 85% 30.01 in 10.0 mi South 3.5 mph - N/A   Clear
9:53 PM -0.4 °F -10.4 °F -4.0 °F 85% 30.00 in 10.0 mi SSE 4.6 mph - N/A   Clear
10:13 PM -2.2 °F -10.4 °F -5.8 °F 85% 30.00 in 10.0 mi SSE 3.5 mph - N/A   Clear
10:33 PM -2.2 °F -14.2 °F -7.6 °F 78% 29.98 in 10.0 mi SE 5.8 mph - N/A   Clear
10:53 PM -0.4 °F -10.4 °F -2.2 °F 92% 29.97 in 10.0 mi SE 4.6 mph - N/A   Clear
11:13 PM -0.4 °F -12.0 °F -2.2 °F 92% 29.95 in 10.0 mi SSE 5.8 mph - N/A   Clear
11:33 PM 1.4 °F -9.9 °F -2.2 °F 85% 29.95 in 10.0 mi SSE 5.8 mph - N/A   Clear
11:53 PM 1.4 °F -6.2 °F -2.2 °F 85% 29.95 in 10.0 mi SE 3.5 mph - N/A   Clear